GW5434 Weather Reports


time (UTC)temp
C
wind
direction
speed
KPH
gust
KPH
rain 1hr
cm
rain 24hr
cm
rain mn
cm
humidity
%
barometer
mb
20260902013029 27 122 0.0 0.0 0.00 0.00 0.00 81 1016.7
20260902011542 27 122 0.0 0.0 0.00 0.00 0.00 80 1016.5
20260902010014 28 131 0.0 3.2 0.00 0.00 0.00 77 1016.4
20260902004520 28 154 0.0 1.6 0.00 0.00 0.00 76 1016.2
20260902003029 29 97 1.6 4.8 0.00 0.00 0.00 74 1015.9
20260902001528 30 203 1.6 4.8 0.00 0.00 0.00 72 1015.7
20260902000040 31 219 1.6 6.4 0.00 0.00 0.00 69 1015.8
20260901234515 32 153 1.6 8.0 0.00 0.00 0.00 67 1015.8
20260901233023 33 186 3.2 6.4 0.00 0.00 0.00 66 1015.7
20260901231528 33 138 1.6 6.4 0.00 0.00 0.00 65 1015.8
20260901230032 33 125 1.6 8.0 0.00 0.00 0.00 63 1015.9
20260901224504 34 95 0.0 1.6 0.00 0.00 0.00 61 1016.1
20260901223009 35 127 0.0 4.8 0.00 0.00 0.00 58 1016.1
20260901221504 35 153 3.2 8.0 0.00 0.00 0.00 55 1015.9
20260901220004 35 165 1.6 6.4 0.00 0.00 0.00 58 1016.0
20260901214508 35 59 1.6 4.8 0.00 0.00 0.00 55 1016.1
20260901213003 35 111 1.6 6.4 0.00 0.00 0.00 54 1016.2
20260901211508 35 165 1.6 6.4 0.00 0.00 0.00 53 1016.3
20260901210005 36 112 0.0 4.8 0.00 0.00 0.00 56 1016.5
20260901204503 35 136 0.0 4.8 0.00 0.00 0.00 57 1016.6
20260901203003 35 6 1.6 4.8 0.00 0.00 0.00 54 1016.8
20260901201502 35 146 1.6 4.8 0.00 0.00 0.00 54 1016.8
20260901200002 35 130 1.6 6.4 0.00 0.00 0.00 57 1017.1
20260901194503 35 71 3.2 9.7 0.00 0.00 0.00 55 1017.3
20260901193005 35 273 3.2 9.7 0.00 0.00 0.00 55 1017.4
20260901191502 35 60 4.8 8.0 0.00 0.00 0.00 56 1017.5
20260901190006 34 97 1.6 6.4 0.00 0.00 0.00 56 1017.7
20260901184503 33 113 1.6 8.0 0.00 0.00 0.00 61 1017.8
20260901183003 32 110 1.6 9.7 0.00 0.00 0.00 63 1018.0
20260901181504 33 15 3.2 8.0 0.00 0.00 0.00 61 1018.0
20260901180004 33 52 1.6 6.4 0.00 0.00 0.00 59 1018.2
20260901174507 33 98 1.6 3.2 0.00 0.00 0.00 66 1018.4
20260901173007 32 33 1.6 6.4 0.00 0.00 0.00 62 1018.6
20260901171507 33 130 1.6 6.4 0.00 0.00 0.00 64 1018.8
20260901170007 33 108 1.6 8.0 0.00 0.00 0.00 64 1018.9
20260901164504 33 101 3.2 6.4 0.00 0.00 0.00 65 1019.0
20260901163005 32 134 4.8 9.7 0.00 0.00 0.00 65 1019.1
20260901161507 32 101 4.8 9.7 0.00 0.00 0.00 67 1019.2
20260901160008 31 62 1.6 9.7 0.00 0.00 0.00 71 1019.2
20260901154508 31 135 1.6 4.8 0.00 0.00 0.00 71 1019.4
20260901153011 30 323 3.2 6.4 0.00 0.00 0.00 72 1019.5
20260901151509 30 11 3.2 9.7 0.00 0.00 0.00 75 1019.3
20260901150016 30 47 4.8 8.0 0.00 0.00 0.00 75 1019.3
20260901144513 30 18 4.8 8.0 0.00 0.00 0.00 76 1019.3
20260901143007 30 134 1.6 4.8 0.00 0.00 0.00 77 1019.4
20260901141512 29 60 1.6 4.8 0.00 0.00 0.00 79 1019.6
20260901140009 28 43 1.6 6.4 0.00 0.00 0.00 81 1019.5
20260901134504 28 111 1.6 6.4 0.00 0.00 0.00 81 1019.3
20260901133003 28 98 0.0 1.6 0.00 0.00 0.00 82 1019.4
20260901131506 27 237 0.0 0.0 0.00 0.00 0.00 85 1019.4
20260901130003 25 3 0.0 0.0 0.00 0.00 0.00 90 1019.4
20260901124508 23 153 0.0 0.0 0.00 0.00 0.00 94 1019.2
20260901123005 22 153 0.0 0.0 0.00 0.00 0.00 95 1019.1
20260901121506 22 153 0.0 0.0 0.00 0.00 0.00 95 1018.9
20260901120004 22 153 0.0 0.0 0.00 0.00 0.00 95 1018.7
20260901114505 21 153 0.0 0.0 0.00 0.00 0.00 94 1018.4
20260901113004 21 153 0.0 0.0 0.00 0.00 0.00 94 1018.2
20260901111506 21 153 0.0 0.0 0.00 0.00 0.00 94 1018.1
20260901110007 22 153 0.0 0.0 0.00 0.00 0.00 94 1018.0
20260901104504 21 153 0.0 0.0 0.00 0.00 0.00 94 1017.8
20260901103003 21 153 0.0 0.0 0.00 0.00 0.00 94 1017.8
20260901101504 21 153 0.0 0.0 0.00 0.00 0.00 94 1017.7
20260901100008 21 153 0.0 0.0 0.00 0.00 0.00 94 1017.7
20260901094514 21 153 0.0 0.0 0.00 0.00 0.00 93 1017.7
20260901093009 22 153 0.0 0.0 0.00 0.00 0.00 94 1017.7
20260901091506 22 153 0.0 0.0 0.00 0.00 0.00 93 1017.6
20260901090008 22 153 0.0 0.0 0.00 0.00 0.00 93 1017.4
20260901084509 22 153 0.0 0.0 0.00 0.00 0.00 93 1017.3
20260901083008 22 153 0.0 0.0 0.00 0.00 0.00 93 1017.5
20260901081507 22 153 0.0 0.0 0.00 0.00 0.00 93 1017.5
20260901080016 22 153 0.0 0.0 0.00 0.00 0.00 93 1017.6
20260901074510 22 153 0.0 0.0 0.00 0.00 0.00 92 1017.5
20260901073009 22 153 0.0 0.0 0.00 0.00 0.00 92 1017.3
20260901070012 22 153 0.0 0.0 0.00 0.00 0.00 92 1017.6
20260901064510 22 153 0.0 0.0 0.00 0.00 0.00 92 1017.7
20260901063024 23 153 0.0 0.0 0.00 0.00 0.00 92 1017.9
20260901061513 23 158 0.0 0.0 0.00 0.00 0.00 92 1017.8
20260901060013 23 158 0.0 0.0 0.00 0.00 0.00 92 1017.7
20260901054512 23 113 0.0 0.0 0.00 0.00 0.00 91 1017.7
20260901053007 23 113 0.0 0.0 0.00 0.00 0.00 90 1017.6
20260901051514 23 113 0.0 0.0 0.00 0.00 0.00 90 1017.6
20260901050017 23 113 0.0 0.0 0.00 0.00 0.00 89 1017.6
20260901044512 23 113 0.0 0.0 0.00 0.00 0.00 89 1017.7
20260901043015 24 113 0.0 0.0 0.00 0.00 0.00 89 1017.5
20260901041506 24 113 0.0 0.0 0.00 0.00 0.00 88 1017.6
20260901040014 24 113 0.0 0.0 0.00 0.00 0.00 88 1017.7
20260901034533 25 134 0.0 0.0 0.00 0.00 0.00 87 1017.7
20260901033023 25 134 0.0 0.0 0.00 0.00 0.00 87 1017.7
20260901031529 25 134 0.0 0.0 0.00 0.00 0.00 86 1017.7
20260901030010 25 134 0.0 0.0 0.00 0.00 0.00 85 1017.8
20260901024519 25 134 0.0 0.0 0.00 0.00 0.00 84 1017.8
20260901023018 26 134 0.0 0.0 0.00 0.00 0.00 83 1017.7
20260901021520 26 101 0.0 0.0 0.00 0.00 0.00 82 1017.7
20260901020020 27 111 0.0 0.0 0.00 0.00 0.00 80 1017.7
20260901014514 27 131 0.0 1.6 0.00 0.00 0.00 79 1017.5